COSMOS 1230

Satellite information

Favourite Embed

Satellite Type and Status

PAYLOADIN ORBIT

Key statistics

Satellite COSMOS 1230 at a glance.

Uptime

16269

Days in orbit

Revolutions

≈ 12.6

Per day

Orbit

LEO

Low Earth Orbit

Inclination

74.0

Latest

Satellite identification and parameters

Extended collection of information and parameters for COSMOS 1230.

Object identification

Identified? True

Debris? False

Object name: COSMOS 1230

International designator: 1980-102C

Object number (NORAD): 12109

Object ID (CCSDS): 12109

Country: COMMONWEALTH OF INDEPENDENT STATES (CIS)

Current information (Y/N): Y

RCS size: MEDIUM

Orbital parameters

Period: 114.475 minutes

Inclination: 73.9941 deg

SMA: 7809.687 km

Apoapsis: 1463.974 km

Periapsis: 1399.129 km

RAAN: 60.8952 deg

Eccentricy: 0.0041516

Argument of periapsis: 186.9055 deg

Mean anomaly: 184.5285 deg

Mean motion: 12.5791803 rev/day

Mean motion (dot): 0.00000001 rev/day2

B* drag term: 0.0001055 1/REarth

Two-line elements (TLE)

Creation date: July 9, 2025, 2:22 a.m.

Reference frame: TEME

Reference center: EARTH

Epoch: July 8, 2025, 9:34 p.m. UTC

TLE line 0: 0 COSMOS 1230

TLE line 1: 1 12109U 80102C 25189.89864089 .00000001 00000-0 10550-3 0 9996

TLE line 2: 2 12109 73.9941 60.8952 0041516 186.9055 184.5285 12.57918030 45276

Live tracking on map

Real-time ground track for satellite COSMOS 1230.

In-orbit conjunctions

There are no conjunctions computed for COSMOS 1230, at the moment. Check back to stay up to date, as we update our databases every day.

Go to all conjunctions

Associated space launch

Military communications satellites

COSMOS 1230 was lifted into orbit during the mission ‘Kosmos-3M | Strela-1M 201-208’, on board a Kosmos-3M space rocket.

The launch took place on Dec. 23, 1980, 10:48 p.m. from 132/1 (132L).

For more information about the launch, click the button.

Launch to space Kosmos-3M | Strela-1M 201-208
Kosmos-3M | Strela-1M 201-208

Agency: N/A

Status: Launch Successful

Launch date: Dec. 23, 1980, 10:48 p.m. UTC

Rocket: Kosmos-3M

Launch pad: 132/1 (132L)

Location: Plesetsk Cosmodrome, Russian Federation

...

Latest news about this satellite

There are no fresh news available about this satellite. Check back as we update our databases every day.


Newsletter sign-up

Weekly statistics, charts and insights to help you stay on top of the space industry.